#timestamp,LO_Frequency,Hit,StdDev 
1614006015.8,286046993.7,N
1614006035.6,286046996.2,N
1614006055.5,286046999.1,N
1614006075.3,286046996.1,N
1614006095.2,286046991.7,N
1614006115.9,286046990.1,N
1614006135.7,286046993.6,N
1614006155.6,286046990.6,N
1614006175.4,286046986.3,Y
1614006195.2,286046993.3,P
1614006215.1,286046999.0,N
1614006216.0,286046999.0,N
1614006235.8,286046999.1,N
1614006255.7,286046992.8,N
1614006275.5,286046988.9,Y
1614006295.3,286047003.8,P
1614006315.2,286047009.2,N
1614006335.0,286047012.0,N
1614006335.9,286047012.0,N
1614006355.8,286047013.6,N
1614006375.6,286047016.4,N
1614006395.4,286047022.4,Y
1614006415.3,286047025.1,P
1614006435.1,286047031.5,P
1614006455.8,286047034.1,P
1614006475.7,286047037.5,Y
1614006495.5,286047012.2,P
1614006515.4,286047007.0,N
1614006535.2,286046998.4,N
1614006555.0,286046989.5,N
1614006555.9,286046989.5,N
1614006575.8,286046977.8,N
1614006595.6,286046966.9,N
1614006615.5,286046957.7,N
1614006635.3,286046953.3,N
1614006655.1,286046956.9,N
1614006675.9,286046957.4,N
1614006695.7,286046962.8,N
1614006715.5,286046966.0,N
1614006735.4,286046967.2,N
1614006755.2,286046966.4,N
1614006775.1,286046962.5,N
1614006776.0,286046962.5,N
1614006795.8,286046963.9,N
1614006815.6,286046958.2,N
1614006835.5,286046952.8,N
1614006855.3,286046952.6,N
1614006875.2,286046962.1,N
1614006895.9,286046980.8,N
1614006915.7,286046988.5,N
1614006935.6,286046987.3,N
1614006955.4,286046986.9,N
1614006975.2,286046986.4,N
1614006995.1,286046987.8,N
1614006996.0,286046987.8,N
1614007015.8,286046994.6,N
1614007035.7,286047003.9,N
1614007055.5,286047005.3,N
1614007075.3,286047007.4,N
1614007095.2,286047005.4,N
1614007115.0,286047004.2,N
1614007115.9,286047004.2,N
1614007135.8,286047000.9,N
1614007155.6,286046994.0,N
1614007175.4,286046989.5,N
1614007195.3,286046986.4,N
1614007215.1,286046981.0,N
1614007235.9,286046979.4,N
1614007255.7,286046979.1,N
1614007275.5,286046994.7,N
1614007295.4,286047008.6,N
1614007315.2,286047012.9,N
1614007335.0,286047020.4,N
1614007336.0,286047020.4,N
1614007355.8,286047022.5,N
1614007375.6,286047012.7,N
1614007395.5,286047007.0,N
1614007415.3,286047001.4,N
1614007435.1,286046996.5,N
1614007455.9,286047000.0,N
1614007475.7,286047003.4,N
1614007495.6,286047005.0,N
1614007515.4,286047002.9,N
1614007535.2,286047018.7,N
1614007555.1,286047017.8,N
1614007556.0,286047017.8,N
1614007575.8,286047017.4,N
1614007595.6,286047017.3,N
1614007615.5,286047020.1,N
1614007635.3,286047029.2,N
1614007655.2,286047034.5,N
1614007675.9,286047038.8,N
1614007695.7,286047038.5,N
1614007715.6,286047038.0,N
1614007735.4,286047029.2,N
1614007755.2,286047034.7,N
1614007775.1,286047030.4,N
1614007776.0,286047030.4,N
1614007795.8,286047028.9,N
1614007815.7,286047024.2,N
1614007835.5,286047021.8,N
1614007855.3,286047026.0,N
1614007875.2,286047029.0,N
1614007895.0,286047026.3,N
1614007895.9,286047026.3,N
1614007915.8,286047022.7,N
1614007935.6,286047020.7,N
1614007955.4,286047029.6,N
1614007975.3,286047035.5,Y
1614007995.1,286047016.6,P
1614008015.9,286047013.8,P
1614008035.7,286047013.0,P
1614008055.5,286047015.9,Y
1614008075.4,286047004.7,P
1614008095.2,286047004.2,N
1614008115.1,286047007.9,N
1614008116.0,286047007.9,N
1614008135.8,286047001.3,N
1614008155.6,286046993.3,N
1614008175.5,286046990.1,N
1614008195.3,286046982.0,N
1614008215.2,286046965.6,Y
1614008235.9,286046958.2,P
1614008255.7,286046962.0,N
1614008275.6,286046971.7,N
1614008295.4,286046984.8,N
1614008315.2,286046980.5,N
1614008335.1,286046985.3,N
1614008336.0,286046985.3,N
1614008355.8,286046993.2,N
1614008375.7,286046990.7,N
1614008395.6,286046991.6,N
1614008415.4,286046992.8,N
1614008435.2,286046998.4,N
1614008455.1,286047004.0,N
1614008456.0,286047004.0,N
1614008475.8,286047009.1,N
1614008495.6,286047005.0,N
1614008515.5,286047000.5,N
1614008535.3,286046998.0,N
1614008555.2,286047001.5,N
1614008575.9,286047009.6,N
1614008595.7,286047011.2,N
1614008615.6,286047012.0,N
1614008635.4,286047011.3,N
1614008655.2,286047019.9,N
1614008675.1,286047023.1,N
1614008676.0,286047023.1,N
1614008695.8,286047017.8,N
1614008715.7,286047023.3,N
1614008735.5,286047021.5,N
1614008755.3,286047018.3,N
1614008775.2,286047019.0,N
1614008795.0,286047011.9,N
1614008795.9,286047028.1,N
1614008815.7,286047033.0,N
1614008835.6,286047036.6,N
1614008855.4,286047034.0,N
1614008875.3,286047025.7,N
1614008895.1,286047017.9,N
1614008896.0,286047017.9,N
1614008915.8,286047013.4,N
1614008935.7,286047010.5,N
1614008955.5,286047014.1,N
1614008975.3,286047019.4,N
1614008995.2,286047018.8,N
1614009015.0,286047015.1,N
1614009015.9,286047015.1,N
1614009035.8,286047017.2,N
1614009055.6,286047015.9,N
1614009075.4,286047020.9,N
1614009095.3,286047022.8,Y
1614009115.1,286047002.5,P
1614009135.9,286047001.2,N
1614009155.7,286046999.0,N
1614009175.5,286046988.9,N
1614009195.4,286046986.8,N
1614009215.2,286046984.7,N
1614009235.0,286046986.3,N
1614009235.9,286046986.3,N
1614009255.8,286046993.7,N
1614009275.6,286047008.7,N
1614009295.5,286047015.0,N
1614009315.3,286047016.3,N
1614009335.1,286047012.3,N
1614009355.9,286047014.5,N
1614009375.7,286047013.4,N
1614009395.5,286047006.6,N
1614009415.4,286047003.4,N
1614009435.2,286046996.1,N
1614009455.0,286046988.8,N
1614009456.0,286046988.8,N
1614009475.8,286046989.5,N
1614009495.6,286046992.0,N
1614009515.5,286046993.1,N
1614009535.3,286046993.2,N
1614009555.1,286046992.5,N
1614009575.9,286046994.9,N
1614009595.7,286047003.2,N
